Regional Weather Roundup
Issued by NWS Sioux Falls, SD

Home | Current Version | Previous Version | Text Only | Print | Product List | Glossary Off
Versions: 1 2 3 4 5 6 7 8 9 10 11 12 13 14 15 16 17 18 19 20 21 22 23 24 25 26 27 28 29 30 31 32 33 34 35 36 37 38 39 40 41 42 43 44 45 46 47 48 49 50

000
ASUS43 KFSD 011302
RWRFSD

WEATHER ROUNDUP FOR SE SOUTH DAKOTA/SW MINNESOTA/NW IOWA
NATIONAL WEATHER SERVICE SIOUX FALLS SD
800 AM CDT WED OCT 01 2014

NOTE: "FAIR" INDICATES FEW OR NO CLOUDS BELOW 12,000 FEET WITH NO
SIGNIFICANT WEATHER AND OR OBSTRUCTIONS TO VISIBILITY.


SDZ038>040-050-052>070-011400-
SOUTHEAST SOUTH DAKOTA

CITY           SKY/WX    TMP DP  RH WIND       PRES   REMARKS
CHAMBERLAIN    MOCLDY    51  49  95 W3        29.74R
HURON          CLOUDY    61  59  93 S3        29.70S FOG
MADISON        LGT RAIN  59  59 100 SW6       29.74R
MITCHELL       CLOUDY    61  59  93 S3        29.72R
SIOUX FALLS    CLOUDY    63  61  93 S8        29.73S
WINNER         FAIR      51  46  83 W8        29.76R
YANKTON        CLOUDY    63  59  88 SE7       29.73R
$$

MNZ071-072-080-081-089-090-097-098-011400-
SOUTHWEST MINNESOTA

CITY           SKY/WX    TMP DP  RH WIND       PRES   REMARKS
FAIRMONT       CLOUDY    54  48  82 SE13      29.77F
JACKSON        CLOUDY    55  54  94 E5        29.78S FOG
LUVERNE        CLOUDY    59  55  88 S3        29.76R FOG
MARSHALL       CLOUDY    61  55  82 S8        29.74R
MONTEVIDEO     RAIN      59  59 100 S7        29.75R
PIPESTONE      CLOUDY    61  59  94 SW5       29.75S FOG
REDWOOD FALLS  CLOUDY    58  54  86 S12       29.77R
TRACY          CLOUDY    59  57  92 S8        29.76R
WINDOM         CLOUDY    55  54  94 SE7       29.78S FOG
WORTHINGTON    CLOUDY    57  55  94 SE6       29.77S
$$

IAZ001>003-012>014-020>022-031-032-NEZ013-014-SDZ071-011400-
NORTHWEST IOWA

CITY           SKY/WX    TMP DP  RH WIND       PRES   REMARKS
CHEROKEE       DRIZZLE   60  60 100 CALM      29.75R
DENISON        CLOUDY    61  61 100 SW6       29.73R
ESTHERVILLE    CLOUDY    55  54  96 SE10      29.76F FOG
LE MARS        CLOUDY    55  55 100 CALM      29.75S FOG
ORANGE CITY    CLOUDY    57  55  94 CALM      29.75S FOG
SHELDON        CLOUDY    57  57 100 NE5       29.74S FOG
SIOUX CITY     PTCLDY    57  56  96 E3        29.74R FOG
SPENCER        CLOUDY    59  57  93 S9        29.76S
STORM LAKE     FOG       57  57 100 E10       29.76R VSB 3/4
$$

ABBREVIATIONS USED IN REMARKS
   TC - TEMPERATURE IN CELSIUS
  WCI - WIND CHILL INDEX
   HX - HEAT INDEX
  VSB - VISIBILITY




USA.gov is the U.S. government's official web portal to all federal, state and local government web resources and services.